Regional Weather Roundup
Issued by NWS

Home | Current Version | Previous Version | Text Only | Print | Product List | Glossary Off
Versions: 1 2 3 4 5 6 7 8 9 10 11 12 13 14 15 16 17 18 19 20 21 22 23 24 25 26 27 28 29 30 31 32 33 34 35 36 37 38 39 40 41 42 43 44 45 46 47 48 49 50

629
ASUS43 KOAX 130302
RWRNE

WEATHER ROUNDUP FOR NEBRASKA
NATIONAL WEATHER SERVICE OMAHA NE
900 PM CST FRI FEB 12 2016

NOTES: SATELLITE DATA IS BEING USED TO AUGMENT CLOUD COVER ABOVE
       12000 FEET.
       "FAIR" INDICATES FEW OR NO CLOUDS BELOW 12,000 FEET WITH NO
       SIGNIFICANT WEATHER AND/OR OBSTRUCTIONS TO VISIBILITY.

  * THESE STATIONS DO NOT REPORT WEATHER SUCH AS RAIN...SNOW OR FOG.

NEZ001>004-019>022-054>056-130400-
NEBRASKA PANHANDLE

CITY           SKY/WX    TMP DP  RH WIND       PRES   REMARKS
SCOTTSBLUFF    CLOUDY    33  30  88 SE15G21   30.28F WCI  23
ALLIANCE       CLOUDY    32  29  88 S18       30.29F WCI  20
CHADRON        CLOUDY    29  25  85 CALM      30.30S
KIMBALL        SNOW      30  30 100 S14       30.27F VSB 1/4 WCI  20
SIDNEY         FOG       30  29  96 S15       30.31F VSB 1/4 WCI  19
$$

NEZ057>060-069>072-079>082-130400-
SOUTHWEST NEBRASKA

CITY           SKY/WX    TMP DP  RH WIND       PRES   REMARKS
NORTH PLATTE   CLOUDY    27  24  89 SE12      30.42F WCI  17
IMPERIAL       CLOUDY    31  28  89 SE10      30.39R WCI  22
LEXINGTON      CLOUDY    26  18  73 SE9       30.48S WCI  16
MCCOOK         FOG       28  27  96 E16       30.44F VSB 1/4 WCI  16
$$

NEZ005>010-023>029-035>040-094-130400-
NORTH CENTRAL NEBRASKA

CITY           SKY/WX    TMP DP  RH WIND       PRES   REMARKS
VALENTINE      CLOUDY    23  15  71 E15       30.44F WCI  10
AINSWORTH      CLOUDY    21  15  76 E10       30.46S WCI  10
BROKEN BOW     CLOUDY    24  18  77 E9        30.47S WCI  14
ORD            CLOUDY    20  12  71 E7        30.52F WCI  11
$$

NEZ041-046>049-061>064-073>077-083>087-130400-
SOUTH CENTRAL NEBRASKA

CITY           SKY/WX    TMP DP  RH WIND       PRES   REMARKS
GRAND ISLAND   CLOUDY    18  11  74 E12       30.56S WCI   5
AURORA         CLOUDY    19  12  74 NE8       30.56S WCI   9
HASTINGS       CLOUDY    21  13  71 E8        30.53S WCI  11
HEBRON         CLOUDY    23  15  72 NE9       30.58R WCI  13
KEARNEY *      CLOUDY    21  16  79 E12       30.52R WCI   9
YORK           CLOUDY    18  10  73 NE9       30.58R WCI   6
$$

NEZ011>018-030>034-042>045-130400-
NORTHEAST NEBRASKA

CITY           SKY/WX    TMP DP  RH WIND       PRES   REMARKS
NORFOLK        CLOUDY    14   4  64 N7        30.60R WCI   4
ALBION         CLOUDY    15   6  67 NE5       30.58R WCI   8
BLAIR          CLOUDY    12   4  67 N10       30.61R WCI  -1
COLUMBUS *     CLOUDY    16   0  48 NE8       30.60S WCI   5
FREMONT        CLOUDY    13   2  62 N5        30.63R WCI   5
TEKAMAH        CLOUDY    10   3  73 N6        30.66R WCI   0
$$

NEZ050>053-065>068-078-088>093-130400-
SOUTHEAST NEBRASKA

CITY           SKY/WX    TMP DP  RH WIND       PRES   REMARKS
LINCOLN        CLOUDY    16   8  71 N10       30.64R WCI   4
OMAHA EPPLEY   CLOUDY    14   2  58 N10       30.65R WCI   1
BEATRICE       CLOUDY    19  13  77 NE9       30.59S WCI   9
FALLS CITY     CLOUDY    18   7  62 N7        30.61R WCI   9
NEBRASKA CITY  PTCLDY    17   6  62 N14       30.61R WCI   3
PLATTSMOUTH    CLOUDY    15   1  54 N10G16    30.61R WCI   2
$$

NEZ044-045-051>053-067-130400-
OMAHA AREA

CITY           SKY/WX    TMP DP  RH WIND       PRES   REMARKS
OMAHA EPPLEY   CLOUDY    14   2  58 N10       30.65R WCI   1
BLAIR          CLOUDY    12   4  67 N10       30.61R WCI  -1
FREMONT        CLOUDY    13   2  62 N5        30.63R WCI   5
OFFUTT AFB     CLOUDY    15   1  53 N7        30.63R WCI   5
PLATTSMOUTH    CLOUDY    15   1  54 N10G16    30.61R WCI   2
WAHOO          FAIR      14   5  67 N9        30.63R WCI   2
$$




USA.gov is the U.S. government's official web portal to all federal, state and local government web resources and services.